[[{"header":{"parameterUnit":"m.s-1","parameterCategory":1,"la1":30.2991,"la2":30.254,"lo1":-89.0895,"lo2":-89.0444,"dy":0.0017,"dx":0.0017,"nx":28,"ny":28,"refTime":"2024-05-18T03:00:00:Z","depth":0,"parameterNumber":2,"parameterNumberName":"U-component_of_WINDS"},"data":[0,0,0,0,0,0,0,0,0,0,0,0,0,0,0,0,0,0,0,0,0,0,0,0,0,0,0,0,0,0,0,0,0,0,0,0,0,0,0,0,0,0,0,0,0,0,0,0,0,0,0,0,0,0,0,0,0,0,1.0056,1.0058,0,1.0195,1.0197,1.0198,1.0228,1.0227,1.0226,1.0225,1.0369,1.0374,1.0379,0,0,0,0,0,0,0,0,0,0,0,0,0,0.9817,0.9821,1.0056,1.0058,1.0059,1.0195,1.0197,1.0199,1.0228,1.0227,1.0225,1.0224,1.0367,1.0373,1.0379,0,0,0,0,0,0,0,0,0,0,0,0,0,0.9935,0.9823,1.0056,1.009,1.0095,1.0194,1.0197,1.0199,1.0228,1.0226,1.0225,1.0223,1.0366,1.0373,1.038,1.0455,0,0,1.0402,1.0405,0,0,0,0,0,0,0,0,0.9928,0.9944,1.0083,1.0088,1.0093,1.0192,1.0165,1.0285,1.0228,1.0178,1.0225,1.0223,1.0312,1.0323,1.0353,1.0462,1.0468,1.0402,1.0407,1.041,1.0412,0,0,0,0,0,0,0,0.992,0.9938,1.0111,1.0085,1.0091,1.0099,1.0114,1.0188,1.0252,1.0182,1.0184,1.02,1.0314,1.0346,1.0356,1.047,1.0402,1.0409,1.0413,1.0416,1.0648,1.0649,0,0,0,0,0,0,0.9905,0.9931,1.0107,1.0115,1.0005,1.0105,1.0122,1.0162,1.0251,1.0263,1.0201,1.0201,1.0334,1.0348,1.0362,1.0455,1.041,1.0417,1.0421,1.0646,1.0648,1.065,0,0,0,0,0,0,0.99,0.9921,1.0101,1.0024,1.0047,1.0111,1.0156,1.0166,1.0197,1.0266,1.0277,1.0222,1.0333,1.0351,1.0431,1.046,1.042,1.0426,1.0644,1.0646,1.0649,1.0642,0,0,0,0,0,0,0.9893,0.9919,0.9948,1.0024,1.0051,1.0168,1.0158,1.017,1.0209,1.021,1.0288,1.03,1.0334,1.042,1.0438,1.0469,1.0432,1.0641,1.0645,1.0648,1.064,1.0645,1.0648,0,0,0,0,0,0.9885,0.9941,0.9949,0.997,1.0089,1.017,1.0185,1.0223,1.0212,1.0241,1.0285,1.0297,1.0454,1.0428,1.0449,1.0483,1.064,1.0644,1.0648,1.0639,1.0644,1.0648,0,0,0,0,0,0,0.9868,0.9952,0.9962,1.0045,1.01,1.0174,1.0213,1.0227,1.0287,1.0285,1.033,1.0347,1.0424,1.0462,1.0431,1.056,1.0547,1.0555,1.0532,1.0538,1.0542,1.0531,1.0438,0,0,0,0,0,0.9873,0.9932,1.0002,1.0069,1.0096,1.0149,1.0186,1.021,1.0269,1.0293,1.0343,1.04,1.0462,1.0502,1.0564,1.0646,1.0663,1.0679,1.0683,1.0686,1.0693,1.0738,1.0746,1.0663,1.0663,1.0663,0,0,0.9886,0.9939,0.9974,1.0067,1.0112,1.0171,1.0169,1.0232,1.0276,1.0303,1.0381,1.0419,1.0486,1.0567,1.0606,1.0601,1.0719,1.0691,1.0693,1.0698,1.0743,1.0751,1.0758,1.0666,1.0666,1.0665,0,0,0.9939,0.9986,1.0046,1.0091,1.0159,1.0195,1.0209,1.0282,1.0308,1.0387,1.0407,1.0461,1.0568,1.0614,1.0652,1.0721,1.0734,1.074,1.0761,1.0804,1.0811,1.0817,1.0841,1.0849,1.0747,1.0747,1.0747,0,0.9947,1.0036,1.0075,1.0136,1.0176,1.0202,1.0263,1.0305,1.039,1.0417,1.0411,1.0544,1.0591,1.0683,1.07,1.073,1.0747,1.0731,1.0807,1.0813,1.0819,1.0842,1.0851,1.0747,1.0747,1.0747,1.0747,0,1.0041,1.0103,1.0143,1.0223,1.0268,1.0329,1.0377,1.0417,1.0438,1.0473,1.0553,1.061,1.0683,1.0707,1.0728,1.0801,1.0796,1.0798,1.0785,1.0826,1.0849,1.0858,1.0747,1.0747,1.0747,1.0747,0,0,1.0087,1.0188,1.0202,1.0238,1.0315,1.0364,1.0426,1.0496,1.0529,1.0587,1.064,1.0729,1.073,1.0773,1.0799,1.0838,1.0888,1.0835,1.0837,1.0841,1.0972,1.0969,1.0979,1.0897,1.0899,1.09,1.0965,0,1.0149,1.0259,1.0296,1.0388,1.0445,1.047,1.0524,1.0577,1.0612,1.0666,1.0706,1.0767,1.0765,1.0791,1.083,1.0873,1.0914,1.0869,1.0946,1.0949,1.0927,1.0991,1.0989,1.1047,1.0975,1.0976,1.0977,0,1.0236,1.0293,1.0391,1.0459,1.0485,1.0533,1.0599,1.065,1.0711,1.0734,1.0781,1.0804,1.087,1.0854,1.0945,1.0913,1.0947,1.0973,1.0976,1.0984,1.0965,1.0999,1.1067,1.1075,1.0992,1.0991,1.099,0,1.0258,1.036,1.0431,1.0462,1.0544,1.0577,1.0613,1.0672,1.0712,1.077,1.0796,1.0862,1.0898,1.0949,1.0989,1.0974,1.1076,1.1063,1.1096,1.1095,1.1116,1.1114,1.1189,1.114,1.1139,1.1139,1.1139,0,1.0322,1.038,1.0442,1.0486,1.0552,1.0593,1.0657,1.0695,1.0747,1.0799,1.0825,1.0873,1.0923,1.0978,1.101,1.108,1.1096,1.1117,1.1124,1.1114,1.1111,1.1136,1.1132,1.1142,1.1141,1.1141,1.114,0,1.0357,1.0401,1.048,1.0552,1.0571,1.0616,1.0678,1.0721,1.0757,1.0822,1.084,1.0897,1.0962,1.1007,1.1092,1.1113,1.1188,1.1196,1.1167,1.1171,1.1201,1.1197,1.1294,1.1308,1.125,1.125,1.125,0,1.0395,1.044,1.0516,1.0552,1.0587,1.0645,1.0685,1.0728,1.0768,1.0841,1.0875,1.0942,1.0998,1.1101,1.1151,1.1215,1.1224,1.1253,1.1234,1.1221,1.1223,1.1219,1.1224,1.1256,1.1257,1.1257,1.1257,0,1.0456,1.0476,1.0532,1.0596,1.0643,1.0695,1.0748,1.0776,1.0828,1.0872,1.0939,1.0982,1.1068,1.1134,1.1203,1.1241,1.1257,1.1263,1.1274,1.1263,1.1244,1.1253,1.1174,1.126,1.126,1.126,1.126,1.126,1.0493,1.0534,1.0593,1.0655,1.0699,1.0748,1.0792,1.0833,1.0889,1.0961,1.0983,1.1052,1.1112,1.1206,1.1244,1.1299,1.1297,1.1313,1.1317,1.132,1.1319,1.1236,1.1312,1.1312,1.1312,1.1312,1.1312,0,1.0555,1.0594,1.0651,1.0723,1.0772,1.0783,1.0842,1.0882,1.0942,1.0995,1.1049,1.1125,1.1189,1.1243,1.131,1.1343,1.1352,1.1359,1.1356,1.1365,1.1318,1.1301,1.135,1.135,1.135,1.135,1.135,1.135,1.0593,1.0662,1.0688,1.0779,1.0819,1.0886,1.0918,1.0963,1.1006,1.109,1.1142,1.1177,1.1231,1.1301,1.136,1.1374,1.1397,1.1402,1.1418,1.1373,1.1368,1.1364,1.1348,1.1407,1.1407,1.146,1.146,1.1461]},{"header":{"parameterUnit":"m.s-1","parameterCategory":1,"la1":30.2991,"la2":30.254,"lo1":-89.0895,"lo2":-89.0444,"dy":0.0017,"dx":0.0017,"nx":28,"ny":28,"refTime":"2024-05-18T03:00:00:Z","depth":0,"parameterNumber":3,"parameterNumberName":"V-component_of_WINDS"},"data":[0,0,0,0,0,0,0,0,0,0,0,0,0,0,0,0,0,0,0,0,0,0,0,0,0,0,0,0,0,0,0,0,0,0,0,0,0,0,0,0,0,0,0,0,0,0,0,0,0,0,0,0,0,0,0,0,0,0,2.0088,2.0088,0,2.006,2.006,2.006,1.9998,1.9997,1.9996,1.9995,1.9966,1.9966,1.9967,0,0,0,0,0,0,0,0,0,0,0,0,0,2.0089,2.0089,2.0088,2.0088,2.0088,2.006,2.006,2.0059,1.9998,1.9997,1.9995,1.9994,1.9966,1.9966,1.9967,0,0,0,0,0,0,0,0,0,0,0,0,0,2.0078,2.0089,2.0088,2.0054,2.0051,2.006,2.006,2.0059,1.9999,1.9997,1.9995,1.9993,1.9966,1.9966,1.9967,2.0008,0,0,1.9969,1.9969,0,0,0,0,0,0,0,0,2.0078,2.0078,2.0059,2.0056,2.0053,2.0031,2.005,2.0042,1.9999,2.0018,1.9994,1.9992,1.9989,1.9988,1.9987,2.0007,2.0006,1.9969,1.9969,1.997,1.997,0,0,0,0,0,0,0,2.0079,2.0079,2.0077,2.0059,2.0055,2.004,2.0036,2.0048,2.0015,2.0017,2.0012,2.001,1.9987,1.9986,1.9985,2.0005,1.9969,1.9969,1.997,1.997,2.0056,2.0058,0,0,0,0,0,0,2.0085,2.008,2.0078,2.0076,2.0061,2.0041,2.0037,2.004,2.0014,2.0009,2.0011,2.0007,1.9986,1.9985,1.9984,2.003,1.9969,1.997,1.997,2.0055,2.0057,2.0059,0,0,0,0,0,0,2.0085,2.0086,2.0079,2.0077,2.0075,2.0043,2.0047,2.004,2.0039,2.001,2.0004,2.0017,1.9984,1.9983,2.0002,2.0028,1.997,1.9971,2.0052,2.0055,2.0058,2.0122,0,0,0,0,0,0,2.0086,2.0086,2.0102,2.0078,2.0075,2.0098,2.0048,2.0041,2.004,2.0034,2.0014,2.0008,1.9983,2.0002,2.0003,2.0028,1.9971,2.005,2.0054,2.0057,2.0118,2.0127,2.0135,0,0,0,0,0,2.0086,2.0121,2.0103,2.0103,2.0094,2.01,2.0099,2.0068,2.0043,2.0058,2.0039,2.0009,2.0025,2.0004,2.0005,2.0031,2.0048,2.0053,2.0057,2.0114,2.0125,2.0135,0,0,0,0,0,0,2.0149,2.0117,2.0097,2.0125,2.0116,2.009,2.0108,2.0082,2.0079,2.0074,2.0037,2.0033,2.0056,2.0045,2.0023,2.0068,2.0032,2.0036,2.0075,2.0085,2.0094,2.0096,1.9972,0,0,0,0,0,2.0167,2.0174,2.0146,2.0174,2.017,2.014,2.0141,2.0119,2.0108,2.0103,2.0086,2.0076,2.0079,2.0082,2.0082,2.0116,2.011,2.0134,2.0142,2.015,2.0154,2.017,2.018,2.0073,2.0073,2.0073,0,0,2.0203,2.0186,2.0193,2.0186,2.0176,2.0185,2.0137,2.0148,2.0154,2.0105,2.0122,2.0109,2.0095,2.0121,2.0132,2.0113,2.0182,2.0155,2.0161,2.0162,2.0175,2.0185,2.0194,2.0076,2.0076,2.0075,0,0,2.0272,2.0261,2.0282,2.0273,2.0258,2.0238,2.0243,2.0221,2.021,2.0226,2.0189,2.0195,2.0201,2.0193,2.0189,2.0255,2.0226,2.0256,2.0301,2.0317,2.0325,2.0332,2.0355,2.0364,2.026,2.0261,2.0261,0,2.0319,2.033,2.0297,2.031,2.0308,2.0263,2.0285,2.0277,2.0264,2.0263,2.0242,2.0247,2.0235,2.0258,2.0274,2.0273,2.0277,2.0258,2.0327,2.0334,2.034,2.0361,2.037,2.0264,2.0264,2.0263,2.0263,0,2.0388,2.0396,2.0415,2.0403,2.0402,2.042,2.0389,2.0393,2.037,2.0352,2.0368,2.0352,2.0348,2.0352,2.033,2.0372,2.036,2.0333,2.0296,2.0354,2.0373,2.0381,2.0269,2.0268,2.0267,2.0266,0,0,2.0497,2.0465,2.0473,2.0466,2.0446,2.0452,2.0467,2.0463,2.0466,2.0458,2.047,2.0475,2.045,2.0446,2.0422,2.0436,2.0488,2.0408,2.0407,2.0423,2.0532,2.0552,2.0562,2.0469,2.0471,2.0472,2.0533,0,2.0562,2.0586,2.0556,2.0586,2.0592,2.055,2.0563,2.0552,2.0535,2.0538,2.0519,2.0523,2.049,2.0487,2.0499,2.048,2.051,2.0475,2.0479,2.048,2.0484,2.0572,2.0594,2.0653,2.054,2.0542,2.0543,0,2.0641,2.0636,2.0667,2.0644,2.0645,2.0658,2.0651,2.0655,2.0641,2.0627,2.0623,2.0595,2.0607,2.057,2.0587,2.0564,2.0563,2.0554,2.0556,2.0555,2.0515,2.0574,2.0671,2.0679,2.0554,2.0553,2.0552,0,2.0717,2.0718,2.0736,2.0732,2.0706,2.0715,2.0705,2.0689,2.0688,2.0683,2.0682,2.0678,2.0675,2.0673,2.0644,2.062,2.0664,2.0625,2.0653,2.0654,2.0664,2.0664,2.0762,2.0664,2.0664,2.0664,2.0664,0,2.0793,2.0813,2.077,2.0781,2.0803,2.0768,2.079,2.0775,2.0761,2.0768,2.0731,2.0739,2.0701,2.0704,2.0682,2.0698,2.0698,2.0687,2.0681,2.069,2.0691,2.069,2.0685,2.0666,2.0666,2.0665,2.0665,0,2.0882,2.0854,2.0871,2.0844,2.0838,2.0855,2.0832,2.0841,2.0821,2.0831,2.0831,2.08,2.0802,2.0773,2.0769,2.0754,2.0781,2.0767,2.0786,2.0781,2.0811,2.0808,2.0911,2.0922,2.0818,2.0819,2.082,0,2.0932,2.0946,2.0921,2.0923,2.0914,2.0918,2.0917,2.0883,2.0883,2.0868,2.0879,2.0877,2.0874,2.0879,2.0857,2.0853,2.084,2.0876,2.0839,2.0848,2.084,2.0839,2.084,2.0884,2.0885,2.0886,2.0887,0,2.1023,2.1008,2.1008,2.1003,2.1002,2.0996,2.0988,2.0992,2.0955,2.0957,2.0958,2.0956,2.0951,2.0951,2.0943,2.0931,2.0903,2.0898,2.0905,2.0915,2.0924,2.0919,2.0806,2.0896,2.0895,2.0895,2.0894,2.0894,2.1094,2.1104,2.1088,2.1088,2.1078,2.1071,2.1078,2.1059,2.106,2.1053,2.1033,2.1038,2.1022,2.1009,2.1,2.1003,2.0985,2.0995,2.0997,2.1,2.1005,2.0924,2.1002,2.1001,2.1001,2.1001,2.1,0,2.1183,2.117,2.1171,2.116,2.1161,2.1133,2.1122,2.1125,2.1129,2.1117,2.1115,2.1116,2.1115,2.1091,2.1087,2.1094,2.1081,2.1094,2.1093,2.1091,2.1021,2.1016,2.1105,2.1105,2.1105,2.1105,2.1105,2.1104,2.123,2.1246,2.1229,2.124,2.1226,2.123,2.1227,2.122,2.121,2.1213,2.1211,2.1196,2.1179,2.1173,2.1171,2.1164,2.1164,2.1182,2.117,2.1106,2.1096,2.1086,2.1081,2.1182,2.1182,2.124,2.124,2.1241]}]]